When you browse on this site, cookies collect data to enhance your experience and personalize the content and advertising you see.
Visit our Privacy Policy to learn more. By continuing to use the site, you agree to this use of cookies and data.
  • In United Kingdom
  • List of Countries
  • For 7 days
  • Water Temperature
  • Weather Map
  • Weather Widgets
  • user-avatar
    Login

    Hourly Weather Encamp

    Today, 28 May, Thursday

    Time Temperature Precipitation Wind Pressure Humidity
    00:00 +9°C° 0 mm 0 mps 630 mmHg 93%
    01:00 +9°C° 0 mm 1 mps 630 mmHg 92%
    02:00 +9°C° 0 mm 1 mps 630 mmHg 91%
    03:00 +8°C° 0 mm 1 mps 629 mmHg 89%
    04:00 +9°C° 0 mm 1 mps 629 mmHg 87%
    05:00 +10°C° 0 mm 1 mps 630 mmHg 84%
    06:00 +11°C° 0 mm 1 mps 630 mmHg 82%
    07:00 +13°C° 0 mm 1 mps 631 mmHg 69%
    08:00 +15°C° 0 mm 1 mps 632 mmHg 57%
    09:00 +19°C° 0 mm 1 mps 632 mmHg 44%
    10:00 +19°C° 0 mm 1 mps 632 mmHg 42%
    11:00 +20°C° 0 mm 1 mps 632 mmHg 39%
    12:00 +20°C° 0 mm 2 mps 632 mmHg 36%
    13:00 +20°C° 0.1 mm 2 mps 632 mmHg 41%
    14:00 +19°C° 0.1 mm 2 mps 631 mmHg 45%
    15:00 +19°C° 0.1 mm 2 mps 630 mmHg 49%
    16:00 +18°C° 0.3 mm 1 mps 630 mmHg 58%
    17:00 +16°C° 0.3 mm 1 mps 629 mmHg 66%
    18:00 +14°C° 0.3 mm 0 mps 628 mmHg 75%
    19:00 +13°C° 0 mm 1 mps 628 mmHg 79%
    20:00 +12°C° 0 mm 1 mps 627 mmHg 84%
    21:00 +10°C° 0 mm 1 mps 627 mmHg 88%
    22:00 +10°C° 0 mm 1 mps 626 mmHg 86%
    23:00 +9°C° 0 mm 1 mps 626 mmHg 84%

    Tomorrow, 29 May, Friday

    Time Temperature Precipitation Wind Pressure Humidity
    00:00 +9°C° 0 mm 1 mps 625 mmHg 82%
    01:00 +9°C° 0 mm 1 mps 625 mmHg 77%
    02:00 +8°C° 0 mm 1 mps 625 mmHg 71%
    03:00 +8°C° 0 mm 1 mps 624 mmHg 66%
    04:00 +9°C° 0 mm 1 mps 624 mmHg 64%
    05:00 +10°C° 0 mm 1 mps 624 mmHg 63%
    06:00 +11°C° 0 mm 1 mps 624 mmHg 62%
    07:00 +13°C° 0 mm 1 mps 625 mmHg 54%
    08:00 +16°C° 0 mm 1 mps 626 mmHg 45%
    09:00 +19°C° 0 mm 1 mps 627 mmHg 37%
    10:00 +20°C° 0 mm 1 mps 627 mmHg 35%
    11:00 +20°C° 0 mm 2 mps 627 mmHg 34%
    12:00 +20°C° 0 mm 2 mps 627 mmHg 32%
    13:00 +20°C° 0.1 mm 2 mps 627 mmHg 37%
    14:00 +19°C° 0.1 mm 2 mps 626 mmHg 42%
    15:00 +19°C° 0.1 mm 3 mps 626 mmHg 47%
    16:00 +17°C° 0.6 mm 2 mps 625 mmHg 59%
    17:00 +16°C° 0.6 mm 2 mps 624 mmHg 70%
    18:00 +14°C° 0.6 mm 1 mps 624 mmHg 82%
    19:00 +12°C° 0.1 mm 1 mps 624 mmHg 86%
    20:00 +11°C° 0.1 mm 1 mps 624 mmHg 90%
    21:00 +10°C° 0.1 mm 1 mps 623 mmHg 94%
    22:00 +9°C° 0 mm 1 mps 623 mmHg 93%
    23:00 +9°C° 0 mm 1 mps 623 mmHg 92%

    Day after tomorrow, 30 May, Saturday

    Time Temperature Precipitation Wind Pressure Humidity
    00:00 +9°C° 0 mm 1 mps 623 mmHg 90%
    01:00 +9°C° 0 mm 1 mps 623 mmHg 90%
    02:00 +8°C° 0 mm 1 mps 623 mmHg 89%
    03:00 +8°C° 0 mm 1 mps 623 mmHg 89%
    04:00 +9°C° 0 mm 1 mps 623 mmHg 87%
    05:00 +10°C° 0 mm 1 mps 624 mmHg 86%
    06:00 +10°C° 0 mm 0 mps 624 mmHg 84%
    07:00 +13°C° 0 mm 1 mps 625 mmHg 74%
    08:00 +15°C° 0 mm 1 mps 625 mmHg 65%
    09:00 +18°C° 0 mm 1 mps 626 mmHg 55%
    10:00 +18°C° 0.1 mm 1 mps 626 mmHg 53%
    11:00 +18°C° 0.1 mm 2 mps 626 mmHg 52%
    12:00 +19°C° 0.1 mm 2 mps 626 mmHg 50%
    13:00 +18°C° 0.4 mm 2 mps 626 mmHg 53%
    14:00 +18°C° 0.4 mm 2 mps 626 mmHg 57%
    15:00 +18°C° 0.4 mm 2 mps 625 mmHg 60%
    16:00 +18°C° 0.4 mm 1 mps 625 mmHg 67%
    17:00 +16°C° 0.4 mm 1 mps 624 mmHg 73%
    18:00 +15°C° 0.4 mm 1 mps 624 mmHg 80%
    19:00 +13°C° 0 mm 1 mps 624 mmHg 84%
    20:00 +12°C° 0 mm 1 mps 623 mmHg 89%
    21:00 +10°C° 0 mm 1 mps 623 mmHg 94%
    22:00 +10°C° 0 mm 1 mps 623 mmHg 93%
    23:00 +10°C° 0 mm 1 mps 623 mmHg 92%

    31 May, Sunday

    Time Temperature Precipitation Wind Pressure Humidity
    00:00 +9°C° 0 mm 1 mps 622 mmHg 91%
    01:00 +9°C° 0 mm 1 mps 622 mmHg 91%
    02:00 +9°C° 0 mm 1 mps 622 mmHg 90%
    03:00 +9°C° 0 mm 1 mps 622 mmHg 89%
    04:00 +10°C° 0 mm 1 mps 622 mmHg 86%
    05:00 +11°C° 0 mm 1 mps 623 mmHg 83%
    06:00 +12°C° 0 mm 1 mps 623 mmHg 79%
    07:00 +14°C° 0 mm 1 mps 624 mmHg 69%
    08:00 +16°C° 0 mm 1 mps 625 mmHg 59%
    09:00 +19°C° 0 mm 1 mps 626 mmHg 50%
    10:00 +19°C° 0 mm 2 mps 626 mmHg 46%
    11:00 +20°C° 0 mm 2 mps 626 mmHg 43%
    12:00 +21°C° 0 mm 2 mps 626 mmHg 40%
    13:00 +20°C° 0.3 mm 2 mps 626 mmHg 46%
    14:00 +19°C° 0.3 mm 2 mps 626 mmHg 52%
    15:00 +19°C° 0.3 mm 2 mps 625 mmHg 58%
    16:00 +19°C° 0.7 mm 1 mps 625 mmHg 65%
    17:00 +18°C° 0.7 mm 1 mps 624 mmHg 72%
    18:00 +15°C° 0.7 mm 0 mps 624 mmHg 78%
    19:00 +14°C° 0.3 mm 1 mps 624 mmHg 82%
    20:00 +13°C° 0.3 mm 1 mps 623 mmHg 86%
    21:00 +11°C° 0.3 mm 1 mps 623 mmHg 90%
    22:00 +11°C° 0 mm 1 mps 623 mmHg 90%
    23:00 +11°C° 0 mm 1 mps 623 mmHg 89%

    1 June, Monday

    Time Temperature Precipitation Wind Pressure Humidity
    00:00 +11°C° 0 mm 1 mps 623 mmHg 88%
    01:00 +10°C° 0 mm 1 mps 622 mmHg 88%
    02:00 +10°C° 0 mm 1 mps 622 mmHg 87%
    03:00 +10°C° 0 mm 1 mps 622 mmHg 87%
    04:00 +11°C° 0 mm 1 mps 623 mmHg 85%
    05:00 +12°C° 0 mm 1 mps 623 mmHg 82%
    06:00 +12°C° 0 mm 1 mps 623 mmHg 80%
    07:00 +14°C° 0.1 mm 1 mps 624 mmHg 71%
    08:00 +16°C° 0.1 mm 1 mps 625 mmHg 62%
    09:00 +19°C° 0.1 mm 1 mps 626 mmHg 52%
    10:00 +20°C° 0.4 mm 1 mps 626 mmHg 54%
    11:00 +19°C° 0.4 mm 2 mps 626 mmHg 56%
    12:00 +19°C° 0.4 mm 2 mps 626 mmHg 58%
    13:00 +18°C° 1.2 mm 2 mps 625 mmHg 63%
    14:00 +19°C° 1.2 mm 1 mps 625 mmHg 68%
    15:00 +18°C° 1.2 mm 1 mps 624 mmHg 73%
    16:00 +16°C° 1.9 mm 1 mps 624 mmHg 80%
    17:00 +15°C° 1.9 mm 1 mps 623 mmHg 86%
    18:00 +14°C° 1.9 mm 1 mps 623 mmHg 92%
    19:00 +13°C° 0.9 mm 1 mps 622 mmHg 93%
    20:00 +12°C° 0.9 mm 1 mps 622 mmHg 94%
    21:00 +11°C° 0.9 mm 1 mps 622 mmHg 96%
    22:00 +11°C° 0 mm 1 mps 622 mmHg 93%
    23:00 +10°C° 0 mm 1 mps 622 mmHg 91%

    2 June, Tuesday

    Time Temperature Precipitation Wind Pressure Humidity
    00:00 +9°C° 0 mm 2 mps 622 mmHg 89%
    01:00 +10°C° 0 mm 1 mps 621 mmHg 88%
    02:00 +11°C° 0 mm 1 mps 621 mmHg 88%
    03:00 +11°C° 0 mm 1 mps 621 mmHg 87%
    04:00 +11°C° 0 mm 1 mps 621 mmHg 86%
    05:00 +12°C° 0 mm 1 mps 622 mmHg 85%
    06:00 +11°C° 0 mm 0 mps 622 mmHg 84%
    07:00 +14°C° 0.3 mm 1 mps 622 mmHg 79%
    08:00 +15°C° 0.3 mm 1 mps 623 mmHg 74%
    09:00 +18°C° 0.3 mm 1 mps 623 mmHg 69%
    10:00 +18°C° 1.1 mm 1 mps 623 mmHg 69%
    11:00 +17°C° 1.1 mm 2 mps 623 mmHg 69%
    12:00 +17°C° 1.1 mm 2 mps 623 mmHg 70%
    13:00 +16°C° 1.5 mm 2 mps 622 mmHg 75%
    14:00 +15°C° 1.5 mm 1 mps 622 mmHg 80%
    15:00 +14°C° 1.5 mm 1 mps 621 mmHg 85%
    16:00 +14°C° 1.3 mm 1 mps 620 mmHg 87%
    17:00 +13°C° 1.3 mm 1 mps 620 mmHg 89%
    18:00 +11°C° 1.3 mm 0 mps 620 mmHg 92%
    19:00 +12°C° 0.5 mm 1 mps 619 mmHg 92%
    20:00 +11°C° 0.5 mm 1 mps 619 mmHg 93%
    21:00 +10°C° 0.5 mm 1 mps 619 mmHg 94%
    22:00 +10°C° 0.2 mm 1 mps 618 mmHg 93%
    23:00 +10°C° 0.2 mm 1 mps 618 mmHg 93%
    Show more